Weather History for Elkins, WV

Change the Weather History Date:

Tuesday, March 27, 2012

  Actual Average Record
Temperature  
Mean Temperature 43 °F 44 °F  
Max Temperature 63 °F 56 °F 84 °F (1921)
Min Temperature 23 °F 31 °F 11 °F (2001)
Degree Days  
Heating Degree Days 22 22  
Month to date heating degree days 399 698  
Since 1 July heating degree days 4138 5019  
Cooling Degree Days 0 0  
Month to date cooling degree days 0 0  
Year to date cooling degree days 0 0  
Moisture  
Dew Point 17 °F    
Average Humidity 49    
Maximum Humidity 88    
Minimum Humidity 10    
Precipitation  
Precipitation 0.00 in 0.14 in 1.29 in (1932)
Month to date precipitation 3.30 3.43  
Year to date precipitation 8.71 9.76  
Snow  
Snow 0.00 in - - ()
Month to date snowfall 2.1  
Since 1 September snowfall 30.4  
Snow Depth 0.00 in    
Sea Level Pressure  
Sea Level Pressure 30.28 in    
Wind  
Wind Speed 1 mph (NNW)    
Max Wind Speed 8 mph    
Max Gust Speed 14 mph    
Visibility 10 miles    
Events      
T = Trace of Precipitation, MM = Missing Value Source: NWS Daily Summary

Daily Weather History Graph

Daily Weather History Graph

Search for Another Location

Airport:

Trip Planner

Search our weather history database for the weather conditions in past years. The results will help you decide how hot, cold, wet, or windy it might be!

Date:

Astronomy

Mar. 27, 2012 Rise Set
Actual Time 7:11 AM EDT 7:38 PM EDT
Civil Twilight 6:44 AM EDT 8:05 PM EDT
Nautical Twilight 6:13 AM EDT 8:36 PM EDT
Astronomical Twilight 5:40 AM EDT 9:09 PM EDT
Moon 9:43 AM EDT (3/27) No Moon Set
Length of Visible Light 13h 20m
Length of Day
12h 27m
Waxing Crescent, 22% of the Moon is Illuminated
Mar 27
Waxing Crescent
Mar 30
First Quarter
Apr 6
Full
Apr 13
Last Quarter
Apr 21
New

Hourly Weather History & Observations

Time (EDT) Temp. Windchill Dew Point Humidity Pressure Visibility Wind Dir Wind Speed Gust Speed Precip Events Conditions
12:51 AM 33.1 °F 28.7 °F 15.1 °F 48% 30.30 in 10.0 mi North 4.6 mph - N/A   Clear
1:51 AM 30.0 °F - 18.0 °F 61% 30.31 in 10.0 mi Calm Calm - N/A   Clear
2:51 AM 28.0 °F 22.8 °F 18.0 °F 66% 30.33 in 10.0 mi NNW 4.6 mph - N/A   Clear
3:51 AM 27.0 °F - 19.9 °F 75% 30.33 in 10.0 mi Calm Calm - N/A   Clear
4:51 AM 25.0 °F - 19.9 °F 81% 30.35 in 10.0 mi Calm Calm - N/A   Clear
5:51 AM 23.0 °F - 19.9 °F 88% 30.35 in 10.0 mi Calm Calm - N/A   Clear
6:51 AM 24.1 °F - 19.0 °F 81% 30.37 in 10.0 mi Calm Calm - N/A   Clear
7:51 AM 24.8 °F - 17.6 °F 74% 30.30 in 10.0 mi Calm Calm - N/A   Clear
8:51 AM 28.9 °F - 21.0 °F 72% 30.37 in 10.0 mi Calm Calm - N/A   Clear
9:51 AM 34.0 °F - 18.0 °F 52% 30.37 in 10.0 mi Calm Calm - N/A   Clear
10:51 AM 39.9 °F - 19.0 °F 43% 30.37 in 10.0 mi Calm Calm - N/A   Clear
11:51 AM 45.0 °F - 14.0 °F 29% 30.35 in 10.0 mi Calm Calm - N/A   Clear
12:51 PM 52.0 °F - 1.9 °F 13% 30.31 in 10.0 mi WNW 3.5 mph - N/A   Clear
1:51 PM 55.9 °F - 9.0 °F 15% 30.29 in 10.0 mi Variable 4.6 mph - N/A   Clear
2:51 PM 59.0 °F - 3.9 °F 11% 30.26 in 10.0 mi Calm Calm - 0.97 in   Clear
3:51 PM 61.0 °F - 9.0 °F 13% 30.24 in 10.0 mi NNW 4.6 mph - N/A   Clear
4:51 PM 60.8 °F - 5.0 °F 11% 30.18 in 10.0 mi Calm Calm - N/A   Clear
5:51 PM 62.1 °F - 12.0 °F 14% 30.22 in 10.0 mi North 4.6 mph - N/A   Clear
6:51 PM 60.1 °F - 12.9 °F 16% 30.22 in 10.0 mi NNW 4.6 mph - N/A   Clear
7:51 PM 50.0 °F - 19.9 °F 31% 30.21 in 10.0 mi SE 3.5 mph - N/A   Clear
8:51 PM 44.1 °F - 27.0 °F 51% 30.21 in 10.0 mi Calm Calm - N/A   Clear
9:51 PM 41.0 °F - 28.0 °F 60% 30.21 in 10.0 mi Calm Calm - N/A   Clear
10:51 PM 39.9 °F - 30.0 °F 68% 30.19 in 10.0 mi Calm Calm - N/A   Clear
11:51 PM 37.9 °F - 30.0 °F 73% 30.16 in 10.0 mi Calm Calm - N/A   Clear